Regional Weather Roundup
Issued by NWS

Home | Current Version | Previous Version | Text Only | Print | Product List | Glossary Off
Versions: 1 2 3 4 5 6 7 8 9 10 11 12 13 14 15 16 17 18 19 20 21 22 23 24 25 26 27 28 29 30 31 32 33 34 35 36 37 38 39 40 41 42 43 44 45 46 47 48 49 50

000
ASUS43 KMKX 290700
RWRWI

WISCONSIN REGIONAL WEATHER ROUNDUP
NATIONAL WEATHER SERVICE MILWAUKEE/SULLIVAN WI
200 AM CDT SUN MAY 29 2016

NOTE: "FAIR" INDICATES FEW OR NO CLOUDS BELOW 12,000 FEET WITH NO
SIGNIFICANT WEATHER AND/OR OBSTRUCTIONS TO VISIBILITY.

WIZ001-002-006>008-014>016-023>028-290800-
NORTHWEST WISCONSIN

CITY           SKY/WX    TMP DP  RH WIND       PRES   REMARKS
SUPERIOR ARPT  FOG       51  51 100 CALM      29.81S VSB 1/2
ASHLAND        CLOUDY    52  51  97 CALM      29.80S
HAYWARD        FOG       60  59  96 CALM      29.80S VSB 1/2
SIREN          LGT RAIN  60  59  97 CALM      29.82S
CUMBERLAND     CLOUDY    59  59 100 CALM      29.82S
RICE LAKE      CLOUDY    61  60  94 CALM      29.83S
CHETEK         CLOUDY    61  61 100 CALM      29.82S
LADYSMITH      CLOUDY    62  61  96 S3        29.83S
EAU CLAIRE     MOCLDY    59  58  96 SW5       29.82R
MENOMONIE      CLOUDY    63  63 100 CALM      29.83S
NEW RICHMOND   CLOUDY    61  61 100 W3        29.83S
OSCEOLA        CLOUDY    61  61 100 CALM      29.85S
$$

WIZ003>005-009-010-017-018-290800-
NORTH CENTRAL WISCONSIN

CITY           SKY/WX    TMP DP  RH WIND       PRES   REMARKS
MANITOWISH WTR NOT AVBL
ARBOR VITAE    CLOUDY    61  60  94 SE3       29.81F
WOODRUFF       CLOUDY    61  60  94 SE3       29.81F
RHINELANDER    CLOUDY    64  61  90 S8        29.83S
EAGLE RIVER      N/A     63  62  97 CALM      29.82F
LAND O LAKES   CLOUDY    61  60  97 E3        29.84S
PHILLIPS       HVY RAIN  60  60 100 S5        29.81R
TOMAHAWK       CLOUDY    62  60  94 CALM      29.83S
MEDFORD        MOCLDY    61  61 100 SW6       29.84R
MERRILL        MOCLDY    64  63  94 SW9       29.84S
$$

WIZ029-030-035-036-043>047-290800-
CENTRAL WISCONSIN

CITY           SKY/WX    TMP DP  RH WIND       PRES   REMARKS
WAUSAU         CLOUDY    66  61  84 SW8       29.83S
MOSINEE        CLOUDY    63  61  94 S10       29.86S
MARSHFIELD     CLOUDY    62  59  90 S7        29.84S
STEVENS POINT  PTCLDY    63  61  94 S10       29.86S
WAUPACA        CLOUDY    66  65  97 S6        29.87S
WAUTOMA        MOCLDY    64  63  96 S6        29.87F
WISC RAPIDS    CLOUDY    64  61  90 S7        29.86F
CAMP DOUGLAS   NOT AVBL
$$

WIZ011>013-019>022-031-037>040-048>050-290800-
NORTHEAST WISCONSIN

CITY           SKY/WX    TMP DP  RH WIND       PRES   REMARKS
ANTIGO         CLOUDY    62  61  99 S13       29.86S
SHAWANO        PTCLDY    65  62  89 S3        29.86S
OCONTO         CLOUDY    64  64 100 SW3       29.85F
STURGEON BAY   NOT AVBL
GREEN BAY      CLOUDY    65  61  87 S6        29.85F
MANITOWOC      NOT AVBL
APPLETON       CLOUDY    64  63  94 S7        29.85F
CLINTONVILLE   MOCLDY    63  61  94 S8        29.86S
OSHKOSH        CLOUDY    65  62  90 S7        29.86F
$$

WIZ032>034-041-042-053>061-290800-
SOUTHWEST WISCONSIN

CITY           SKY/WX    TMP DP  RH WIND       PRES   REMARKS
LA CROSSE      CLOUDY    64  61  90 S6        29.83S
SPARTA         PTCLDY    64  62  94 S7        29.85F
VIROQUA        CLOUDY    64  61  92 S9        29.87F
BOSCOBEL       CLOUDY    64  62  93 CALM      29.87F
PRAIRIE DU CHI CLOUDY    64  58  80 CALM      29.87F
PLATTEVILLE    CLOUDY    64  62  90 S9        29.91F
$$

WIZ056-057-062-063-064-067-068-290800-
SOUTH CENTRAL WISCONSIN

CITY           SKY/WX    TMP DP  RH WIND       PRES   REMARKS
REEDSBURG      MOCLDY    64  63  94 S13       29.87F
BARABOO/DELLS  MOCLDY    64  61  89 S7        29.88F
LONE ROCK      NOT AVBL
MINERAL POINT  PTCLDY    64  61  88 S9        29.91F
MADISON        MOCLDY    67  62  84 S5        29.89F
MIDDLETON      MOCLDY    67  62  85 SW6       29.90F
WATERTOWN      CLOUDY    65  65 100 S6        29.89F
MONROE         PTCLDY    64  59  82 S9        29.92F
JANESVILLE     CLOUDY    68  64  88 S8        29.92S
$$

WIZ051-052-058>065-066-070>072-290800-
SOUTHEAST WISCONSIN

CITY           SKY/WX    TMP DP  RH WIND       PRES   REMARKS
MILWAUKEE      CLOUDY    65  63  93 S9        29.91F
WAUKESHA       CLOUDY    63  61  94 S6        29.93S
MILWAUKEE/TIMM CLOUDY    64  61  88 S8        29.91F
RACINE         PTCLDY    65  61  87 SW9       29.93F
BURLINGTON     CLOUDY    63  62  97 SW5       29.92F
KENOSHA        CLOUDY    65  62  90 SW7       29.92F
FOND DU LAC    CLOUDY    66  63  90 S9        29.87F
SHEBOYGAN      CLOUDY    62  60  93 SW7       29.88F FOG
WEST BEND      CLOUDY    63  63 100 S5        29.89F
JUNEAU         CLOUDY    64  62  95 S8        29.90F
$$

LSZ147-162-290800-
LAKE SUPERIOR

STATION/POSITION TIME  TEMP    WIND        PRES    WAVE
                       AIR SEA DIR/SP/G            HT/PER
                 (UTC) (F)     (DEG/KT/KT) (MB)    (FT/S)
W MID LAKE BUOY  0550   40 38  350/  4/  4 1009.3F   1/ 4
DEVILS ISLAND    0600   45     290/  2/  3 1009.7R
SAXON HARBOR     0600   49     200/  2/  2 1008.5
$$

LMZ867-665-643>646-290800-
LAKE MICHIGAN

STATION/POSITION TIME  TEMP    WIND        PRES    WAVE
                       AIR SEA DIR/SP/G            HT/PER
                 (UTC) (F)     (DEG/KT/KT) (MB)    (FT/S)
CHAMBERS ISLAND  0600   63     170/  6/ 12 1011.2
N MID LAKE BUOY  0550   51 46  170/ 10/ 12 1010.8F   3/ 5
NORTHPORT PIER   0600   63     170/  6/ 13 1011.2R
SISTER BAY       0620   66     190/ 16/ 20   N/A
ALGOMA LAKESHORE 0617          220/ 12/ 13   N/A
KEWAUNEE LAKESHO 0600   59     180/ 10/ 12 1011.4F
SHEBOYGAN LAKESH 0600   59     210/  7/  8 1012.4F
PORT WASHINGTON  0640   58     190/  5/  8 1012.9F
S MID LAKE BUOY  0550   56 50  190/  6/  8 1013.7F   2/ 4
KENOSHA   LAKESH 0600   63     210/  4/  7 1013.5F
$$

TC  - TEMPERATURE IN CELSIUS
VSB - VISIBILITY IN STATUTE MILES
WCI - WIND CHILL INDEX
HX  - HEAT INDEX





USA.gov is the U.S. government's official web portal to all federal, state and local government web resources and services.